TimeMST,TemperatureF,Dew PointF,Humidity,Sea Level PressureIn,VisibilityMPH,Wind Direction,Wind SpeedMPH,Gust SpeedMPH,PrecipitationIn,Events,Conditions,WindDirDegrees,DateUTC
12:46 AM,14.0,10.4,86,30.15,2.0,SW,3.5,-,0.00,Snow,Light Snow,230,2012-12-09 07:46:00
12:56 AM,14.0,10.0,84,30.33,3.0,WSW,4.6,-,0.00,Snow,Light Snow,240,2012-12-09 07:56:00
1:33 AM,12.2,8.6,85,30.16,3.0,SW,3.5,-,0.00,Snow,Light Snow,230,2012-12-09 08:33:00
1:56 AM,12.0,8.1,84,30.36,3.0,SW,3.5,-,0.00,Snow,Light Snow,230,2012-12-09 08:56:00
2:47 AM,8.6,5.0,85,30.18,6.0,SSE,4.6,-,0.00,,Scattered Clouds,160,2012-12-09 09:47:00
2:56 AM,6.1,5.0,95,30.39,5.0,SSE,3.5,-,0.00,,Scattered Clouds,160,2012-12-09 09:56:00
3:25 AM,6.8,3.2,85,30.19,6.0,South,4.6,-,N/A,,Mostly Cloudy,190,2012-12-09 10:25:00
3:56 AM,7.0,3.9,87,30.40,6.0,South,3.5,-,N/A,,Overcast,190,2012-12-09 10:56:00
4:45 AM,8.6,5.0,85,30.20,6.0,South,3.5,-,N/A,,Overcast,180,2012-12-09 11:45:00
4:56 AM,6.1,3.0,87,30.42,7.0,South,5.8,-,N/A,,Scattered Clouds,180,2012-12-09 11:56:00
5:26 AM,1.4,-2.2,85,30.22,2.5,South,5.8,-,N/A,,Clear,180,2012-12-09 12:26:00
5:33 AM,1.4,-0.4,92,30.22,3.0,SSW,6.9,-,N/A,,Scattered Clouds,200,2012-12-09 12:33:00
5:42 AM,3.2,-0.4,85,30.23,8.0,South,4.6,-,N/A,,Mostly Cloudy,170,2012-12-09 12:42:00
5:56 AM,7.0,3.0,84,30.45,10.0,South,4.6,-,N/A,,Overcast,190,2012-12-09 12:56:00
6:56 AM,8.1,3.9,83,30.46,5.0,East,5.8,-,N/A,,Overcast,90,2012-12-09 13:56:00
7:56 AM,8.1,3.9,83,30.49,8.0,Calm,Calm,-,N/A,,Overcast,0,2012-12-09 14:56:00
8:33 AM,8.6,6.8,92,30.27,1.8,Calm,Calm,-,0.00,Snow,Light Snow,0,2012-12-09 15:33:00
8:35 AM,10.4,6.8,85,30.28,0.8,Calm,Calm,-,0.00,Snow,Light Snow,0,2012-12-09 15:35:00
8:56 AM,10.0,7.0,87,30.50,1.0,Calm,Calm,-,0.00,Snow,Light Snow,0,2012-12-09 15:56:00
9:04 AM,8.6,6.8,92,30.28,1.8,East,3.5,-,0.00,Snow,Light Snow,100,2012-12-09 16:04:00
9:21 AM,8.6,6.8,92,30.29,2.0,ESE,4.6,-,0.00,Snow,Light Snow,120,2012-12-09 16:21:00
9:44 AM,10.4,6.8,85,30.29,1.5,SE,4.6,-,0.00,Snow,Light Snow,130,2012-12-09 16:44:00
9:56 AM,10.0,7.0,87,30.51,1.0,SE,3.5,-,0.00,Snow,Light Snow,140,2012-12-09 16:56:00
10:10 AM,10.4,6.8,85,30.30,1.8,East,3.5,-,0.00,Snow,Light Snow,100,2012-12-09 17:10:00
10:48 AM,8.6,6.8,92,30.28,1.0,SE,4.6,-,0.00,Snow,Light Snow,130,2012-12-09 17:48:00
10:56 AM,9.0,6.1,88,30.51,2.0,SE,4.6,-,0.00,Snow,Light Snow,140,2012-12-09 17:56:00
11:20 AM,8.6,5.0,85,30.26,5.0,SE,4.6,-,0.00,Snow,Light Snow,130,2012-12-09 18:20:00
11:56 AM,12.0,5.0,73,30.47,5.0,Calm,Calm,-,0.00,,Haze,0,2012-12-09 18:56:00
12:56 PM,12.0,6.1,77,30.44,8.0,Calm,Calm,-,N/A,,Clear,0,2012-12-09 19:56:00
1:56 PM,12.0,5.0,73,30.41,10.0,ESE,4.6,-,N/A,,Clear,110,2012-12-09 20:56:00
2:56 PM,12.0,5.0,73,30.40,10.0,SSE,3.5,-,N/A,,Clear,160,2012-12-09 21:56:00
3:56 PM,12.9,6.1,74,30.37,10.0,Calm,Calm,-,N/A,,Overcast,0,2012-12-09 22:56:00
4:56 PM,12.9,7.0,77,30.35,10.0,Calm,Calm,-,N/A,,Overcast,0,2012-12-09 23:56:00
5:56 PM,14.0,8.1,77,30.32,10.0,Calm,Calm,-,N/A,,Overcast,0,2012-12-10 00:56:00
6:56 PM,15.1,9.0,77,30.30,10.0,Calm,Calm,-,N/A,,Overcast,0,2012-12-10 01:56:00
7:56 PM,18.0,8.1,65,30.27,10.0,East,3.5,-,N/A,,Overcast,90,2012-12-10 02:56:00
8:56 PM,18.0,10.9,74,30.26,10.0,WSW,4.6,-,N/A,,Overcast,240,2012-12-10 03:56:00
9:56 PM,19.9,10.0,65,30.24,10.0,Calm,Calm,-,N/A,,Overcast,0,2012-12-10 04:56:00
10:56 PM,21.0,12.0,68,30.22,10.0,East,3.5,-,N/A,,Overcast,100,2012-12-10 05:56:00
11:56 PM,25.0,14.0,63,30.19,9.0,ENE,8.1,-,0.00,Snow,Light Snow,60,2012-12-10 06:56:00